CGMAN EPWA-BIKF

Flight info

Callsign CGMAN
Flight time 3h 49m
Altitude 34000
Route OLILA6G OLILA L621 SOMOR DCT RUMAR DCT GUNPA DCT ING DCT NASBU NASBU3M
Aircraft B738/M-V/N

Departure

Time 2026-04-26 20:22
Airport Warsaw Chopin Airport (EPWA)

Arrival

Time 2026-04-27 00:11
Airport Keflavik International Airport (BIKF)
Time Latitude Longitude Altitude Speed Heading
2026-04-26 19:52 52.17375 20.97047 342 ft 0 kts 241°
2026-04-26 20:10 52.17376 20.97048 341 ft 1 kts 241°
2026-04-26 20:10 52.17383 20.97069 342 ft 2 kts 241°
2026-04-26 20:11 52.17390 20.97091 342 ft 2 kts 241°
2026-04-26 20:11 52.17397 20.97112 343 ft 2 kts 240°
2026-04-26 20:11 52.17400 20.97141 343 ft 2 kts 290°
2026-04-26 20:12 52.17384 20.97167 344 ft 1 kts 332°
2026-04-26 20:12 52.17384 20.97168 344 ft 0 kts 332°
2026-04-26 20:14 52.17388 20.97164 344 ft 2 kts 332°
2026-04-26 20:14 52.17413 20.97142 343 ft 6 kts 332°
2026-04-26 20:14 52.17456 20.97104 342 ft 9 kts 331°
2026-04-26 20:15 52.17518 20.97048 342 ft 11 kts 331°
2026-04-26 20:15 52.17583 20.96991 342 ft 10 kts 332°
2026-04-26 20:15 52.17624 20.96915 341 ft 10 kts 275°
2026-04-26 20:15 52.17592 20.96800 340 ft 11 kts 239°
2026-04-26 20:16 52.17547 20.96679 337 ft 15 kts 238°
2026-04-26 20:16 52.17473 20.96575 334 ft 15 kts 174°
2026-04-26 20:16 52.17383 20.96645 334 ft 15 kts 151°
2026-04-26 20:16 52.17294 20.96724 334 ft 14 kts 151°
2026-04-26 20:17 52.17216 20.96793 334 ft 13 kts 152°
2026-04-26 20:17 52.17130 20.96868 333 ft 17 kts 152°
2026-04-26 20:17 52.17020 20.96963 333 ft 21 kts 152°
2026-04-26 20:17 52.16933 20.97040 334 ft 22 kts 151°
2026-04-26 20:18 52.16778 20.97179 337 ft 18 kts 151°
2026-04-26 20:18 52.16676 20.97271 337 ft 17 kts 151°
2026-04-26 20:18 52.16586 20.97364 337 ft 15 kts 134°
2026-04-26 20:18 52.16532 20.97520 337 ft 18 kts 115°
2026-04-26 20:19 52.16474 20.97725 336 ft 24 kts 115°
2026-04-26 20:19 52.16404 20.97976 335 ft 25 kts 115°
2026-04-26 20:19 52.16338 20.98213 337 ft 23 kts 114°
2026-04-26 20:19 52.16285 20.98399 336 ft 12 kts 115°
2026-04-26 20:20 52.16233 20.98469 335 ft 10 kts 186°
2026-04-26 20:20 52.16167 20.98425 334 ft 10 kts 207°
2026-04-26 20:20 52.16117 20.98373 333 ft 7 kts 238°
2026-04-26 20:20 52.16124 20.98309 333 ft 0 kts 295°
2026-04-26 20:21 52.16135 20.98270 333 ft 23 kts 295°
2026-04-26 20:21 52.16286 20.97738 334 ft 85 kts 295°
2026-04-26 20:21 52.16590 20.96651 332 ft 138 kts 294°
2026-04-26 20:21 52.17033 20.95013 480 ft 170 kts 294°
2026-04-26 20:22 52.17477 20.93268 1184 ft 169 kts 297°
2026-04-26 20:22 52.17931 20.91533 1809 ft 175 kts 300°
2026-04-26 20:22 52.18572 20.89791 2219 ft 184 kts 317°
2026-04-26 20:22 52.19622 20.88578 2599 ft 195 kts 339°
2026-04-26 20:23 52.20943 20.87936 3041 ft 207 kts 343°
2026-04-26 20:23 52.22302 20.87095 3609 ft 214 kts 332°
2026-04-26 20:23 52.23465 20.85591 4344 ft 216 kts 316°
2026-04-26 20:23 52.24492 20.83848 5051 ft 217 kts 317°
2026-04-26 20:24 52.25555 20.82107 5655 ft 222 kts 318°
2026-04-26 20:24 52.26691 20.80374 6208 ft 229 kts 322°
2026-04-26 20:24 52.28086 20.79112 6751 ft 235 kts 343°
2026-04-26 20:24 52.29685 20.78627 7382 ft 240 kts 349°
2026-04-26 20:25 52.31332 20.78228 7953 ft 246 kts 349°
2026-04-26 20:25 52.32496 20.77966 8147 ft 258 kts 350°
2026-04-26 20:25 52.34977 20.77599 8604 ft 280 kts 358°
2026-04-26 20:25 52.36937 20.77802 9018 ft 292 kts
2026-04-26 20:26 52.39003 20.78048 9478 ft 302 kts
2026-04-26 20:26 52.41118 20.78264 9991 ft 310 kts 360°
2026-04-26 20:26 52.43299 20.78479 10512 ft 317 kts 359°
2026-04-26 20:26 52.45504 20.78532 11070 ft 320 kts 355°
2026-04-26 20:27 52.47706 20.78084 11568 ft 324 kts 345°
2026-04-26 20:27 52.49850 20.76918 12043 ft 328 kts 334°
2026-04-26 20:27 52.51776 20.74999 12660 ft 329 kts 323°
2026-04-26 20:27 52.53435 20.72382 13340 ft 331 kts 313°
2026-04-26 20:28 52.54812 20.69337 13844 ft 336 kts 307°
2026-04-26 20:28 52.56092 20.66146 14416 ft 339 kts 307°
2026-04-26 20:28 52.57368 20.62989 15186 ft 334 kts 307°
2026-04-26 20:28 52.58704 20.59750 15446 ft 346 kts 308°
2026-04-26 20:29 52.60074 20.56495 15654 ft 356 kts 308°
2026-04-26 20:29 52.61524 20.53128 16185 ft 360 kts 309°
2026-04-26 20:29 52.62962 20.49842 16718 ft 361 kts 309°
2026-04-26 20:29 52.64436 20.46499 17238 ft 362 kts 309°
2026-04-26 20:30 52.65931 20.43119 17668 ft 366 kts 309°
2026-04-26 20:30 52.67416 20.39753 18197 ft 366 kts 309°
2026-04-26 20:30 52.68909 20.36360 18707 ft 367 kts 309°
2026-04-26 20:30 52.70399 20.33000 19135 ft 370 kts 309°
2026-04-26 20:31 52.72025 20.29684 19611 ft 371 kts 312°
2026-04-26 20:31 52.73736 20.26495 19974 ft 375 kts 314°
2026-04-26 20:31 52.75485 20.23348 20507 ft 375 kts 314°
2026-04-26 20:31 52.77256 20.20170 20854 ft 379 kts 314°
2026-04-26 20:32 52.79017 20.16984 21301 ft 380 kts 314°
2026-04-26 20:32 52.80805 20.13723 21675 ft 383 kts 314°
2026-04-26 20:32 52.82553 20.10446 22106 ft 385 kts 312°
2026-04-26 20:32 52.84292 20.07054 22381 ft 390 kts 311°
2026-04-26 20:33 52.86018 20.03608 22819 ft 390 kts 311°
2026-04-26 20:33 52.87744 20.00145 23170 ft 393 kts 311°
2026-04-26 20:33 52.89497 19.96635 23495 ft 396 kts 311°
2026-04-26 20:33 52.91227 19.93172 23895 ft 397 kts 311°
2026-04-26 20:34 52.92996 19.89632 24198 ft 400 kts 311°
2026-04-26 20:34 52.94763 19.86107 24550 ft 402 kts 311°
2026-04-26 20:34 52.96547 19.82543 24940 ft 403 kts 311°
2026-04-26 20:34 52.98346 19.78940 25192 ft 407 kts 311°
2026-04-26 20:35 53.00132 19.75356 25503 ft 409 kts 311°
2026-04-26 20:35 53.01944 19.71719 25708 ft 414 kts 310°
2026-04-26 20:35 53.03765 19.68061 26070 ft 414 kts 311°
2026-04-26 20:35 53.05597 19.64377 26358 ft 417 kts 310°
2026-04-26 20:36 53.07491 19.60697 26815 ft 415 kts 313°
2026-04-26 20:36 53.09443 19.57240 27305 ft 412 kts 315°
2026-04-26 20:36 53.11436 19.53886 27734 ft 410 kts 315°
2026-04-26 20:36 53.13453 19.50542 28095 ft 411 kts 316°
2026-04-26 20:37 53.15456 19.47218 28446 ft 411 kts 315°
2026-04-26 20:37 53.17480 19.43835 28868 ft 409 kts 315°
2026-04-26 20:37 53.19440 19.40535 29309 ft 407 kts 315°
2026-04-26 20:37 53.21399 19.37212 29921 ft 400 kts 315°
2026-04-26 20:38 53.23340 19.33903 30199 ft 401 kts 314°
2026-04-26 20:38 53.25297 19.30574 30568 ft 400 kts 314°
2026-04-26 20:38 53.27201 19.27340 30916 ft 398 kts 314°
2026-04-26 20:38 53.29151 19.24028 31125 ft 400 kts 314°
2026-04-26 20:39 53.31097 19.20716 31389 ft 400 kts 314°
2026-04-26 20:39 53.33041 19.17401 31657 ft 399 kts 314°
2026-04-26 20:39 53.34977 19.14093 31895 ft 399 kts 314°
2026-04-26 20:39 53.36900 19.10802 32146 ft 399 kts 314°
2026-04-26 20:40 53.38834 19.07487 32408 ft 398 kts 314°
2026-04-26 20:40 53.40756 19.04189 32626 ft 399 kts 314°
2026-04-26 20:40 53.42671 19.00897 32819 ft 399 kts 314°
2026-04-26 20:40 53.44579 18.97612 33104 ft 397 kts 314°
2026-04-26 20:41 53.46513 18.94280 33278 ft 398 kts 314°
2026-04-26 20:41 53.48425 18.90976 33472 ft 398 kts 314°
2026-04-26 20:41 53.50349 18.87650 33667 ft 398 kts 314°
2026-04-26 20:41 53.52255 18.84352 33855 ft 398 kts 314°
2026-04-26 20:42 53.54150 18.81064 34071 ft 397 kts 314°
2026-04-26 20:42 53.56082 18.77706 34229 ft 398 kts 314°
2026-04-26 20:42 53.57977 18.74410 34412 ft 397 kts 314°
2026-04-26 20:42 53.59875 18.71103 34576 ft 397 kts 314°
2026-04-26 20:43 53.61792 18.67761 34699 ft 397 kts 315°
2026-04-26 20:43 53.63686 18.64458 34842 ft 397 kts 315°
2026-04-26 20:43 53.65586 18.61136 34918 ft 398 kts 315°
2026-04-26 20:43 53.67515 18.57759 35033 ft 398 kts 314°
2026-04-26 20:44 53.69425 18.54407 35161 ft 397 kts 315°
2026-04-26 20:44 53.71329 18.51061 35294 ft 396 kts 314°
2026-04-26 20:44 53.73244 18.47692 35386 ft 397 kts 315°
2026-04-26 20:44 53.75131 18.44368 35521 ft 396 kts 315°
2026-04-26 20:45 53.77031 18.41018 35582 ft 397 kts 315°
2026-04-26 20:45 53.80822 18.34321 35744 ft 397 kts 314°
2026-04-26 20:46 53.84623 18.27587 35918 ft 397 kts 314°
2026-04-26 20:46 53.86520 18.24218 36024 ft 396 kts 314°
2026-04-26 20:46 53.88419 18.20843 36109 ft 396 kts 314°
2026-04-26 20:47 53.92176 18.14156 36227 ft 395 kts 314°
2026-04-26 20:47 53.95937 18.07436 36246 ft 395 kts 314°
2026-04-26 20:48 53.99727 18.00647 36257 ft 396 kts 314°
2026-04-26 20:48 54.03490 17.93884 36232 ft 397 kts 314°
2026-04-26 20:49 54.07268 17.87071 36236 ft 397 kts 314°
2026-04-26 20:49 54.11037 17.80255 36230 ft 397 kts 314°
2026-04-26 20:50 54.14775 17.73479 36227 ft 398 kts 314°
2026-04-26 20:50 54.18551 17.66618 36224 ft 398 kts 314°
2026-04-26 20:51 54.22333 17.59735 36234 ft 399 kts 314°
2026-04-26 20:51 54.26079 17.52886 36235 ft 398 kts 314°
2026-04-26 20:52 54.29843 17.45985 36232 ft 398 kts 314°
2026-04-26 20:52 54.33598 17.39083 36232 ft 399 kts 314°
2026-04-26 20:53 54.37351 17.32165 36234 ft 400 kts 313°
2026-04-26 20:53 54.41089 17.25252 36234 ft 400 kts 314°
2026-04-26 20:54 54.44828 17.18319 36235 ft 400 kts 314°
2026-04-26 20:54 54.48521 17.11446 36241 ft 401 kts 313°
2026-04-26 20:55 54.52274 17.04452 36241 ft 402 kts 313°
2026-04-26 20:55 54.56050 16.97391 36234 ft 402 kts 313°
2026-04-26 20:56 54.59821 16.90319 36239 ft 402 kts 313°
2026-04-26 20:56 54.63583 16.83245 36241 ft 402 kts 313°
2026-04-26 20:57 54.67352 16.76132 36241 ft 402 kts 313°
2026-04-26 20:57 54.71114 16.69011 36237 ft 403 kts 313°
2026-04-26 20:58 54.74855 16.61915 36239 ft 404 kts 313°
2026-04-26 20:58 54.78625 16.54737 36240 ft 404 kts 313°
2026-04-26 20:59 54.82400 16.47532 36245 ft 405 kts 313°
2026-04-26 20:59 54.86174 16.40304 36244 ft 405 kts 313°
2026-04-26 21:00 54.89946 16.33057 36250 ft 405 kts 313°
2026-04-26 21:00 54.93692 16.25842 36249 ft 406 kts 313°
2026-04-26 21:01 54.97464 16.18553 36248 ft 406 kts 313°
2026-04-26 21:01 55.01227 16.11256 36251 ft 405 kts 313°
2026-04-26 21:02 55.04964 16.03983 36251 ft 405 kts 312°
2026-04-26 21:02 55.08709 15.96632 36255 ft 406 kts 312°
2026-04-26 21:03 55.12453 15.89248 36256 ft 408 kts 312°
2026-04-26 21:03 55.16171 15.81892 36259 ft 407 kts 312°
2026-04-26 21:04 55.19905 15.74474 36256 ft 407 kts 312°
2026-04-26 21:04 55.23655 15.67008 36258 ft 408 kts 312°
2026-04-26 21:05 55.27361 15.59604 36259 ft 407 kts 312°
2026-04-26 21:05 55.31102 15.52105 36258 ft 408 kts 312°
2026-04-26 21:06 55.34804 15.44660 36260 ft 408 kts 312°
2026-04-26 21:06 55.38542 15.37121 36262 ft 408 kts 312°
2026-04-26 21:07 55.42264 15.29591 36255 ft 409 kts 311°
2026-04-26 21:07 55.45987 15.22035 36246 ft 409 kts 311°
2026-04-26 21:08 55.49698 15.14481 36241 ft 408 kts 311°
2026-04-26 21:08 55.53421 15.06883 36240 ft 409 kts 311°
2026-04-26 21:09 55.57126 14.99297 36243 ft 410 kts 311°
2026-04-26 21:09 55.60858 14.91627 36244 ft 410 kts 311°
2026-04-26 21:10 55.64557 14.84000 36244 ft 410 kts 311°
2026-04-26 21:10 55.68221 14.76420 36255 ft 410 kts 311°
2026-04-26 21:11 55.71807 14.68980 36253 ft 410 kts 311°
2026-04-26 21:11 55.75339 14.61633 36266 ft 411 kts 311°
2026-04-26 21:12 55.78885 14.54232 36268 ft 412 kts 311°
2026-04-26 21:12 55.82487 14.46688 36267 ft 411 kts 311°
2026-04-26 21:13 55.86155 14.38983 36268 ft 411 kts 311°
2026-04-26 21:13 55.89796 14.31312 36266 ft 411 kts 311°
2026-04-26 21:14 55.93456 14.23578 36268 ft 411 kts 311°
2026-04-26 21:14 55.97110 14.15832 36262 ft 411 kts 311°
2026-04-26 21:15 56.00720 14.08154 36262 ft 411 kts 311°
2026-04-26 21:15 56.04271 14.00574 36267 ft 411 kts 311°
2026-04-26 21:16 56.07827 13.92961 36267 ft 412 kts 311°
2026-04-26 21:16 56.11406 13.85274 36258 ft 413 kts 311°
2026-04-26 21:17 56.15028 13.77470 36252 ft 413 kts 311°
2026-04-26 21:17 56.18669 13.69601 36249 ft 413 kts 311°
2026-04-26 21:18 56.22280 13.61771 36252 ft 413 kts 311°
2026-04-26 21:18 56.25888 13.53921 36253 ft 412 kts 311°
2026-04-26 21:19 56.29492 13.46057 36247 ft 411 kts 310°
2026-04-26 21:19 56.33081 13.38194 36249 ft 412 kts 311°
2026-04-26 21:20 56.36678 13.30298 36254 ft 413 kts 310°
2026-04-26 21:20 56.40270 13.22382 36251 ft 413 kts 310°
2026-04-26 21:21 56.43813 13.14546 36255 ft 413 kts 310°
2026-04-26 21:21 56.47306 13.06798 36251 ft 414 kts 310°
2026-04-26 21:22 56.50761 12.99108 36250 ft 414 kts 310°
2026-04-26 21:22 56.54220 12.91384 36250 ft 414 kts 310°
2026-04-26 21:23 56.59412 12.79744 36251 ft 414 kts 310°
2026-04-26 21:23 56.62849 12.72009 36255 ft 413 kts 310°
2026-04-26 21:24 56.66261 12.64308 36256 ft 413 kts 310°
2026-04-26 21:24 56.69643 12.56649 36256 ft 413 kts 310°
2026-04-26 21:25 56.73040 12.48927 36255 ft 413 kts 310°
2026-04-26 21:25 56.76433 12.41195 36254 ft 413 kts 310°
2026-04-26 21:26 56.79813 12.33465 36254 ft 414 kts 309°
2026-04-26 21:26 56.83312 12.25434 36248 ft 413 kts 309°
2026-04-26 21:27 56.86824 12.17352 36240 ft 413 kts 309°
2026-04-26 21:27 56.90364 12.09176 36242 ft 413 kts 309°
2026-04-26 21:28 56.93902 12.00978 36239 ft 414 kts 309°
2026-04-26 21:28 56.97439 11.92751 36256 ft 414 kts 309°
2026-04-26 21:29 57.00995 11.84450 36262 ft 414 kts 309°
2026-04-26 21:29 57.04532 11.76169 36259 ft 414 kts 309°
2026-04-26 21:30 57.08049 11.67906 36257 ft 415 kts 309°
2026-04-26 21:30 57.11607 11.59517 36261 ft 415 kts 309°
2026-04-26 21:31 57.15147 11.51135 36257 ft 414 kts 309°
2026-04-26 21:31 57.18662 11.42797 36255 ft 415 kts 309°
2026-04-26 21:32 57.22136 11.34521 36254 ft 415 kts 308°
2026-04-26 21:32 57.25615 11.26203 36256 ft 416 kts 308°
2026-04-26 21:33 57.29103 11.17834 36255 ft 417 kts 308°
2026-04-26 21:33 57.32639 11.09317 36254 ft 416 kts 308°
2026-04-26 21:34 57.36158 11.00816 36255 ft 417 kts 308°
2026-04-26 21:34 57.39653 10.92342 36254 ft 417 kts 308°
2026-04-26 21:35 57.43136 10.83868 36253 ft 417 kts 308°
2026-04-26 21:35 57.46552 10.75527 36254 ft 417 kts 308°
2026-04-26 21:36 57.49400 10.68552 36251 ft 417 kts 308°
2026-04-26 21:36 57.53345 10.58855 36246 ft 417 kts 308°
2026-04-26 21:37 57.56749 10.50459 36245 ft 417 kts 308°
2026-04-26 21:37 57.60248 10.41798 36244 ft 418 kts 308°
2026-04-26 21:38 57.63721 10.33169 36245 ft 417 kts 307°
2026-04-26 21:38 57.67188 10.24526 36244 ft 418 kts 307°
2026-04-26 21:39 57.70666 10.15818 36241 ft 418 kts 307°
2026-04-26 21:39 57.74112 10.07159 36243 ft 418 kts 307°
2026-04-26 21:40 57.77560 9.98465 36240 ft 417 kts 307°
2026-04-26 21:40 57.81004 9.89749 36238 ft 418 kts 307°
2026-04-26 21:41 57.84436 9.81032 36229 ft 418 kts 307°
2026-04-26 21:41 57.87871 9.72282 36232 ft 418 kts 307°
2026-04-26 21:42 57.91325 9.63445 36216 ft 418 kts 307°
2026-04-26 21:42 57.94742 9.54673 36219 ft 419 kts 307°
2026-04-26 21:43 57.98184 9.45809 36214 ft 419 kts 307°
2026-04-26 21:43 58.01622 9.36914 36207 ft 418 kts 307°
2026-04-26 21:44 58.05027 9.28074 36214 ft 419 kts 306°
2026-04-26 21:44 58.08416 9.19243 36221 ft 419 kts 306°
2026-04-26 21:45 58.11787 9.10424 36214 ft 419 kts 306°
2026-04-26 21:45 58.15162 9.01563 36215 ft 420 kts 306°
2026-04-26 21:46 58.18502 8.92764 36223 ft 421 kts 306°
2026-04-26 21:46 58.21653 8.84433 36226 ft 421 kts 306°
2026-04-26 21:47 58.24773 8.76154 36225 ft 421 kts 306°
2026-04-26 21:47 58.27956 8.67674 36227 ft 420 kts 306°
2026-04-26 21:48 58.31115 8.59237 36226 ft 419 kts 306°
2026-04-26 21:48 58.34317 8.50649 36225 ft 420 kts 306°
2026-04-26 21:49 58.37506 8.42067 36222 ft 421 kts 306°
2026-04-26 21:49 58.40736 8.33344 36215 ft 421 kts 305°
2026-04-26 21:50 58.43371 8.26205 36209 ft 421 kts 304°
2026-04-26 21:50 58.47079 8.16118 36211 ft 421 kts 304°
2026-04-26 21:51 58.50247 8.07463 36210 ft 421 kts 304°
2026-04-26 21:51 58.53380 7.98876 36196 ft 421 kts 304°
2026-04-26 21:52 58.56533 7.90204 36196 ft 421 kts 304°
2026-04-26 21:52 58.59673 7.81538 36206 ft 422 kts 304°
2026-04-26 21:53 58.62823 7.72809 36202 ft 422 kts 304°
2026-04-26 21:53 58.65982 7.64027 36209 ft 423 kts 304°
2026-04-26 21:54 58.69114 7.55285 36209 ft 422 kts 304°
2026-04-26 21:54 58.72258 7.46476 36215 ft 423 kts 304°
2026-04-26 21:55 58.75360 7.37753 36206 ft 424 kts 304°
2026-04-26 21:55 58.78440 7.29057 36190 ft 423 kts 304°
2026-04-26 21:56 58.81530 7.20302 36177 ft 424 kts 304°
2026-04-26 21:56 58.84583 7.11621 36169 ft 425 kts 304°
2026-04-26 21:57 58.87681 7.02780 36156 ft 425 kts 303°
2026-04-26 21:57 58.90782 6.93900 36144 ft 426 kts 303°
2026-04-26 21:58 58.93872 6.85013 36131 ft 426 kts 303°
2026-04-26 21:58 58.96940 6.76155 36144 ft 425 kts 303°
2026-04-26 21:59 59.00021 6.67233 36144 ft 426 kts 303°
2026-04-26 21:59 59.03149 6.58136 36147 ft 426 kts 303°
2026-04-26 22:00 59.04714 6.53573 36464 ft 428 kts 303°
2026-04-26 22:00 59.06295 6.48957 36225 ft 428 kts 303°
2026-04-26 22:00 59.09408 6.39844 36195 ft 420 kts 303°
2026-04-26 22:01 59.12460 6.30878 36225 ft 423 kts 302°
2026-04-26 22:01 59.15473 6.21987 36258 ft 424 kts 302°
2026-04-26 22:02 59.18486 6.13049 36259 ft 424 kts 302°
2026-04-26 22:02 59.21464 6.04184 36265 ft 424 kts 302°
2026-04-26 22:03 59.24480 5.95179 36271 ft 424 kts 302°
2026-04-26 22:03 59.27452 5.86275 36278 ft 425 kts 302°
2026-04-26 22:04 59.30435 5.77301 36293 ft 425 kts 302°
2026-04-26 22:04 59.33421 5.68287 36295 ft 425 kts 302°
2026-04-26 22:05 59.36371 5.59345 36303 ft 424 kts 302°
2026-04-26 22:05 59.39345 5.50290 36294 ft 425 kts 302°
2026-04-26 22:06 59.42338 5.41144 36297 ft 425 kts 302°
2026-04-26 22:06 59.45451 5.31600 36294 ft 426 kts 302°
2026-04-26 22:07 59.48608 5.21879 36301 ft 426 kts 302°
2026-04-26 22:07 59.51773 5.12092 36299 ft 426 kts 302°
2026-04-26 22:08 59.54925 5.02306 36300 ft 426 kts 301°
2026-04-26 22:08 59.58071 4.92494 36299 ft 427 kts 301°
2026-04-26 22:09 59.61211 4.82659 36300 ft 427 kts 301°
2026-04-26 22:09 59.64347 4.72802 36301 ft 427 kts 301°
2026-04-26 22:10 59.67491 4.62870 36299 ft 428 kts 301°
2026-04-26 22:10 59.70610 4.52978 36301 ft 428 kts 301°
2026-04-26 22:11 59.73719 4.43074 36302 ft 428 kts 301°
2026-04-26 22:11 59.76839 4.33092 36306 ft 429 kts 300°
2026-04-26 22:12 59.79953 4.23086 36311 ft 429 kts 300°
2026-04-26 22:12 59.83062 4.13058 36315 ft 429 kts 300°
2026-04-26 22:13 59.86153 4.03042 36317 ft 429 kts 300°
2026-04-26 22:13 59.89246 3.92976 36317 ft 429 kts 300°
2026-04-26 22:14 59.92331 3.82888 36317 ft 429 kts 300°
2026-04-26 22:14 59.95401 3.72815 36318 ft 431 kts 300°
2026-04-26 22:15 59.98479 3.62664 36318 ft 431 kts 300°
2026-04-26 22:15 60.01545 3.52508 36315 ft 432 kts 300°
2026-04-26 22:16 60.04640 3.42215 36311 ft 432 kts 300°
2026-04-26 22:16 60.07716 3.31938 36306 ft 432 kts 299°
2026-04-26 22:17 60.10773 3.21679 36301 ft 433 kts 299°
2026-04-26 22:17 60.13852 3.11299 36300 ft 433 kts 299°
2026-04-26 22:18 60.16912 3.00938 36299 ft 433 kts 299°
2026-04-26 22:18 60.19955 2.90589 36295 ft 434 kts 299°
2026-04-26 22:19 60.23008 2.80160 36298 ft 435 kts 299°
2026-04-26 22:19 60.26061 2.69680 36297 ft 436 kts 299°
2026-04-26 22:20 60.29107 2.59180 36296 ft 438 kts 299°
2026-04-26 22:20 60.32158 2.48612 36294 ft 438 kts 299°
2026-04-26 22:21 60.35204 2.38013 36295 ft 438 kts 299°
2026-04-26 22:21 60.38237 2.27408 36298 ft 438 kts 298°
2026-04-26 22:22 60.41259 2.16792 36298 ft 440 kts 298°
2026-04-26 22:22 60.44302 2.06049 36302 ft 441 kts 298°
2026-04-26 22:23 60.47335 1.95299 36301 ft 442 kts 298°
2026-04-26 22:23 60.50361 1.84526 36306 ft 442 kts 298°
2026-04-26 22:24 60.53394 1.73674 36309 ft 443 kts 298°
2026-04-26 22:24 60.56404 1.62852 36309 ft 442 kts 298°
2026-04-26 22:25 60.59404 1.52011 36308 ft 443 kts 298°
2026-04-26 22:25 60.62391 1.41168 36304 ft 443 kts 298°
2026-04-26 22:26 60.65396 1.30207 36298 ft 443 kts 297°
2026-04-26 22:26 60.68378 1.19281 36295 ft 443 kts 297°
2026-04-26 22:27 60.71352 1.08328 36292 ft 444 kts 297°
2026-04-26 22:27 60.74329 0.97308 36291 ft 444 kts 297°
2026-04-26 22:28 60.77289 0.86305 36287 ft 444 kts 297°
2026-04-26 22:28 60.80243 0.75265 36281 ft 445 kts 297°
2026-04-26 22:29 60.83208 0.64130 36268 ft 446 kts 297°
2026-04-26 22:29 60.86153 0.53015 36272 ft 446 kts 297°
2026-04-26 22:30 60.89101 0.41832 36263 ft 447 kts 297°
2026-04-26 22:30 60.92043 0.30620 36262 ft 447 kts 296°
2026-04-26 22:31 60.94962 0.19444 36266 ft 447 kts 296°
2026-04-26 22:31 60.97883 0.08195 36262 ft 448 kts 296°
2026-04-26 22:32 61.00788 -0.03067 36272 ft 447 kts 296°
2026-04-26 22:32 61.03633 -0.14414 36271 ft 448 kts 296°
2026-04-26 22:33 61.07865 -0.31612 36255 ft 450 kts 296°
2026-04-26 22:34 61.10675 -0.43103 36253 ft 449 kts 296°
2026-04-26 22:34 61.13469 -0.54578 36249 ft 449 kts 296°
2026-04-26 22:35 61.16260 -0.66096 36247 ft 449 kts 295°
2026-04-26 22:35 61.19049 -0.77667 36224 ft 449 kts 295°
2026-04-26 22:36 61.21815 -0.89191 36221 ft 450 kts 295°
2026-04-26 22:36 61.24596 -1.00839 36231 ft 452 kts 295°
2026-04-26 22:37 61.27353 -1.12458 36246 ft 451 kts 295°
2026-04-26 22:37 61.30100 -1.24087 36241 ft 450 kts 295°
2026-04-26 22:38 61.32827 -1.35693 36242 ft 450 kts 295°
2026-04-26 22:38 61.35564 -1.47404 36227 ft 450 kts 295°
2026-04-26 22:39 61.38268 -1.59039 36233 ft 451 kts 295°
2026-04-26 22:39 61.40994 -1.70836 36224 ft 451 kts 294°
2026-04-26 22:40 61.43697 -1.82583 36220 ft 451 kts 294°
2026-04-26 22:40 61.46384 -1.94339 36218 ft 451 kts 294°
2026-04-26 22:41 61.49061 -2.06121 36215 ft 452 kts 294°
2026-04-26 22:41 61.51739 -2.17961 36213 ft 452 kts 294°
2026-04-26 22:42 61.54395 -2.29772 36206 ft 451 kts 294°
2026-04-26 22:42 61.57052 -2.41653 36201 ft 451 kts 294°
2026-04-26 22:43 61.59695 -2.53543 36201 ft 451 kts 294°
2026-04-26 22:43 61.62316 -2.65392 36179 ft 452 kts 294°
2026-04-26 22:44 61.64941 -2.77325 36197 ft 452 kts 294°
2026-04-26 22:44 61.67559 -2.89295 36200 ft 452 kts 294°
2026-04-26 22:45 61.70174 -3.01327 36200 ft 452 kts 294°
2026-04-26 22:45 61.72767 -3.13318 36208 ft 452 kts 294°
2026-04-26 22:46 61.75354 -3.25353 36192 ft 452 kts 294°
2026-04-26 22:46 61.77911 -3.37316 36203 ft 451 kts 294°
2026-04-26 22:47 61.80468 -3.49350 36195 ft 451 kts 294°
2026-04-26 22:47 61.83022 -3.61442 36189 ft 451 kts 294°
2026-04-26 22:48 61.85554 -3.73499 36186 ft 451 kts 293°
2026-04-26 22:48 61.88078 -3.85582 36178 ft 451 kts 293°
2026-04-26 22:49 61.90585 -3.97661 36178 ft 451 kts 293°
2026-04-26 22:49 61.93097 -4.09825 36177 ft 451 kts 293°
2026-04-26 22:50 61.95593 -4.21993 36167 ft 451 kts 293°
2026-04-26 22:50 61.98072 -4.34143 36157 ft 451 kts 293°
2026-04-26 22:51 62.00556 -4.46395 36165 ft 450 kts 293°
2026-04-26 22:51 62.03001 -4.58528 36171 ft 450 kts 293°
2026-04-26 22:52 62.05455 -4.70779 36168 ft 451 kts 292°
2026-04-26 22:52 62.07898 -4.83046 36169 ft 450 kts 292°
2026-04-26 22:53 62.10314 -4.95248 36160 ft 451 kts 292°
2026-04-26 22:53 62.12734 -5.07546 36176 ft 450 kts 292°
2026-04-26 22:54 62.15139 -5.19843 36178 ft 450 kts 292°
2026-04-26 22:54 62.17526 -5.32122 36167 ft 450 kts 292°
2026-04-26 22:55 62.19897 -5.44397 36169 ft 449 kts 292°
2026-04-26 22:55 62.22257 -5.56686 36177 ft 449 kts 293°
2026-04-26 22:56 62.24599 -5.68957 36153 ft 449 kts 292°
2026-04-26 22:56 62.26939 -5.81290 36172 ft 448 kts 292°
2026-04-26 22:57 62.29269 -5.93651 36164 ft 448 kts 292°
2026-04-26 22:57 62.31582 -6.06001 36154 ft 450 kts 292°
2026-04-26 22:58 62.33896 -6.18430 36161 ft 449 kts 292°
2026-04-26 22:58 62.36179 -6.30774 36145 ft 449 kts 292°
2026-04-26 22:59 62.38462 -6.43192 36165 ft 449 kts 292°
2026-04-26 22:59 62.40736 -6.55647 36151 ft 448 kts 292°
2026-04-26 23:00 62.42999 -6.68118 36148 ft 448 kts 291°
2026-04-26 23:00 62.45244 -6.80564 36152 ft 448 kts 291°
2026-04-26 23:01 62.47474 -6.93006 36150 ft 448 kts 291°
2026-04-26 23:01 62.49705 -7.05530 36149 ft 449 kts 291°
2026-04-26 23:02 62.51923 -7.18077 36154 ft 447 kts 291°
2026-04-26 23:02 62.54115 -7.30556 36157 ft 448 kts 291°
2026-04-26 23:03 62.56296 -7.43053 36136 ft 448 kts 291°
2026-04-26 23:03 62.58482 -7.55649 36140 ft 448 kts 291°
2026-04-26 23:04 62.60656 -7.68270 36148 ft 448 kts 291°
2026-04-26 23:04 62.62818 -7.80906 36141 ft 448 kts 291°
2026-04-26 23:05 62.64956 -7.93487 36133 ft 447 kts 290°
2026-04-26 23:05 62.67084 -8.06096 36125 ft 446 kts 290°
2026-04-26 23:06 62.69186 -8.18637 36123 ft 446 kts 291°
2026-04-26 23:06 62.71293 -8.31289 36127 ft 445 kts 291°
2026-04-26 23:07 62.73376 -8.43880 36125 ft 445 kts 291°
2026-04-26 23:07 62.75460 -8.56554 36121 ft 445 kts 291°
2026-04-26 23:08 62.77529 -8.69227 36116 ft 443 kts 290°
2026-04-26 23:08 62.79570 -8.81814 36110 ft 442 kts 290°
2026-04-26 23:09 62.81613 -8.94510 36112 ft 442 kts 290°
2026-04-26 23:09 62.83625 -9.07099 36119 ft 441 kts 290°
2026-04-26 23:10 62.85629 -9.19724 36113 ft 441 kts 290°
2026-04-26 23:10 62.87616 -9.32328 36110 ft 440 kts 290°
2026-04-26 23:11 62.89589 -9.44930 36110 ft 440 kts 290°
2026-04-26 23:11 62.91548 -9.57535 36105 ft 439 kts 290°
2026-04-26 23:12 62.93502 -9.70200 36102 ft 440 kts 289°
2026-04-26 23:12 62.95440 -9.82843 36095 ft 439 kts 289°
2026-04-26 23:13 62.97362 -9.95475 36094 ft 438 kts 289°
2026-04-26 23:13 62.99271 -10.08117 36095 ft 438 kts 289°
2026-04-26 23:14 63.01172 -10.20795 36092 ft 437 kts 289°
2026-04-26 23:14 63.03059 -10.33474 36094 ft 438 kts 289°
2026-04-26 23:15 63.04924 -10.46088 36090 ft 436 kts 289°
2026-04-26 23:15 63.06776 -10.58710 36094 ft 434 kts 289°
2026-04-26 23:16 63.08624 -10.71377 36094 ft 435 kts 288°
2026-04-26 23:16 63.10458 -10.84059 36097 ft 434 kts 288°
2026-04-26 23:17 63.12260 -10.96617 36090 ft 432 kts 288°
2026-04-26 23:17 63.14054 -11.09210 36099 ft 431 kts 288°
2026-04-26 23:18 63.15827 -11.21747 36098 ft 430 kts 289°
2026-04-26 23:18 63.17586 -11.34279 36096 ft 429 kts 288°
2026-04-26 23:19 63.19347 -11.46923 36093 ft 430 kts 288°
2026-04-26 23:19 63.21086 -11.59505 36087 ft 428 kts 288°
2026-04-26 23:20 63.22798 -11.71983 36085 ft 427 kts 288°
2026-04-26 23:20 63.24513 -11.84587 36086 ft 427 kts 288°
2026-04-26 23:21 63.26196 -11.97047 36081 ft 425 kts 288°
2026-04-26 23:21 63.27871 -12.09521 36075 ft 425 kts 288°
2026-04-26 23:22 63.29542 -12.22057 36075 ft 425 kts 288°
2026-04-26 23:22 63.31200 -12.34626 36072 ft 423 kts 288°
2026-04-26 23:23 63.32829 -12.47053 36085 ft 422 kts 288°
2026-04-26 23:23 63.34448 -12.59516 36079 ft 420 kts 288°
2026-04-26 23:24 63.36057 -12.71995 36079 ft 420 kts 287°
2026-04-26 23:24 63.37645 -12.84408 36078 ft 419 kts 287°
2026-04-26 23:25 63.39222 -12.96849 36076 ft 419 kts 287°
2026-04-26 23:25 63.40796 -13.09350 36078 ft 418 kts 288°
2026-04-26 23:26 63.42348 -13.21753 36077 ft 416 kts 288°
2026-04-26 23:26 63.43885 -13.34161 36073 ft 416 kts 287°
2026-04-26 23:27 63.45404 -13.46510 36076 ft 416 kts 288°
2026-04-26 23:27 63.46925 -13.58963 35784 ft 414 kts 287°
2026-04-26 23:27 63.47669 -13.65106 36264 ft 410 kts 286°
2026-04-26 23:28 63.48411 -13.71247 35971 ft 412 kts 287°
2026-04-26 23:28 63.49904 -13.83673 36074 ft 417 kts 287°
2026-04-26 23:29 63.51393 -13.96180 36070 ft 418 kts 286°
2026-04-26 23:29 63.52860 -14.08637 36070 ft 413 kts 287°
2026-04-26 23:30 63.54313 -14.21070 36066 ft 413 kts 287°
2026-04-26 23:30 63.55759 -14.33503 36074 ft 413 kts 287°
2026-04-26 23:31 63.57190 -14.45917 36072 ft 413 kts 287°
2026-04-26 23:31 63.58609 -14.58331 36070 ft 412 kts 286°
2026-04-26 23:32 63.60009 -14.70725 36067 ft 412 kts 285°
2026-04-26 23:32 63.61405 -14.83190 36071 ft 410 kts 285°
2026-04-26 23:33 63.62776 -14.95552 36072 ft 409 kts 285°
2026-04-26 23:33 63.64137 -15.07889 36068 ft 410 kts 285°
2026-04-26 23:34 63.65501 -15.20353 36063 ft 409 kts 285°
2026-04-26 23:34 63.66826 -15.32660 36069 ft 408 kts 285°
2026-04-26 23:35 63.68158 -15.45081 36069 ft 408 kts 285°
2026-04-26 23:35 63.69479 -15.57438 36073 ft 405 kts 285°
2026-04-26 23:36 63.70781 -15.69758 36075 ft 407 kts 284°
2026-04-26 23:36 63.72070 -15.82134 36074 ft 405 kts 284°
2026-04-26 23:37 63.73345 -15.94440 36075 ft 403 kts 284°
2026-04-26 23:37 63.74597 -16.06657 36068 ft 405 kts 283°
2026-04-26 23:38 63.75814 -16.18670 36064 ft 402 kts 284°
2026-04-26 23:38 63.76999 -16.30431 36066 ft 402 kts 284°
2026-04-26 23:39 63.78195 -16.42396 36060 ft 401 kts 284°
2026-04-26 23:39 63.79385 -16.54432 36057 ft 402 kts 284°
2026-04-26 23:40 63.80655 -16.66375 36042 ft 398 kts 282°
2026-04-26 23:40 63.81376 -16.78449 36038 ft 399 kts 276°
2026-04-26 23:41 63.81819 -16.90417 36041 ft 399 kts 276°
2026-04-26 23:41 63.82321 -17.02723 36050 ft 399 kts 277°
2026-04-26 23:42 63.82870 -17.14809 36049 ft 394 kts 277°
2026-04-26 23:42 63.83718 -17.32978 36043 ft 394 kts 277°
2026-04-26 23:43 63.84286 -17.45226 36038 ft 391 kts 277°
2026-04-26 23:43 63.84843 -17.57389 36025 ft 390 kts 276°
2026-04-26 23:44 63.85387 -17.69527 36021 ft 388 kts 276°
2026-04-26 23:44 63.85916 -17.81645 36020 ft 388 kts 275°
2026-04-26 23:45 63.86433 -17.93702 36011 ft 383 kts 275°
2026-04-26 23:45 63.86934 -18.05564 36007 ft 382 kts 275°
2026-04-26 23:46 63.87433 -18.17507 36002 ft 382 kts 275°
2026-04-26 23:46 63.87913 -18.29413 36000 ft 380 kts 275°
2026-04-26 23:47 63.88380 -18.41345 35999 ft 382 kts 274°
2026-04-26 23:47 63.88849 -18.53302 35997 ft 379 kts 275°
2026-04-26 23:48 63.89309 -18.65177 35989 ft 381 kts 273°
2026-04-26 23:48 63.89747 -18.77020 35987 ft 379 kts 273°
2026-04-26 23:49 63.90173 -18.88905 35984 ft 380 kts 274°
2026-04-26 23:49 63.90587 -19.00856 35736 ft 384 kts 274°
2026-04-26 23:50 63.90797 -19.06841 35327 ft 380 kts 274°
2026-04-26 23:50 63.91002 -19.12702 35227 ft 367 kts 273°
2026-04-26 23:50 63.91184 -19.18357 34727 ft 365 kts 273°
2026-04-26 23:50 63.91375 -19.24045 33952 ft 367 kts 273°
2026-04-26 23:51 63.91571 -19.29846 33194 ft 368 kts 273°
2026-04-26 23:51 63.91769 -19.35584 32501 ft 369 kts 273°
2026-04-26 23:51 63.91969 -19.41402 31803 ft 373 kts 271°
2026-04-26 23:51 63.92157 -19.47253 31113 ft 379 kts 272°
2026-04-26 23:52 63.92345 -19.53224 30426 ft 386 kts 272°
2026-04-26 23:52 63.92533 -19.59335 29739 ft 392 kts 272°
2026-04-26 23:52 63.92722 -19.65533 29055 ft 397 kts 271°
2026-04-26 23:52 63.92910 -19.71803 28375 ft 401 kts 271°
2026-04-26 23:53 63.93077 -19.78074 27698 ft 406 kts 271°
2026-04-26 23:53 63.93247 -19.84502 27022 ft 412 kts 271°
2026-04-26 23:53 63.93437 -19.90945 26345 ft 417 kts 271°
2026-04-26 23:53 63.93634 -19.97525 25667 ft 419 kts 272°
2026-04-26 23:54 63.93826 -20.04005 25007 ft 417 kts 271°
2026-04-26 23:54 63.94015 -20.10463 24345 ft 414 kts 271°
2026-04-26 23:54 63.94196 -20.16787 23705 ft 411 kts 272°
2026-04-26 23:54 63.94375 -20.23156 23093 ft 409 kts 271°
2026-04-26 23:55 63.94545 -20.29374 22482 ft 408 kts 271°
2026-04-26 23:55 63.94714 -20.35742 21855 ft 408 kts 271°
2026-04-26 23:55 63.94883 -20.42052 21241 ft 407 kts 271°
2026-04-26 23:55 63.95052 -20.48348 20633 ft 407 kts 271°
2026-04-26 23:56 63.95216 -20.54553 20032 ft 406 kts 271°
2026-04-26 23:56 63.95376 -20.60667 19435 ft 406 kts 271°
2026-04-26 23:56 63.95537 -20.66905 18824 ft 407 kts 270°
2026-04-26 23:56 63.95694 -20.73049 18226 ft 405 kts 270°
2026-04-26 23:57 63.95850 -20.79149 17620 ft 403 kts 270°
2026-04-26 23:57 63.96004 -20.85249 17018 ft 399 kts 270°
2026-04-26 23:57 63.96154 -20.91281 16479 ft 394 kts 270°
2026-04-26 23:57 63.96301 -20.97290 15987 ft 388 kts 270°
2026-04-26 23:58 63.96440 -21.03118 15505 ft 382 kts 269°
2026-04-26 23:58 63.96577 -21.08942 15017 ft 377 kts 269°
2026-04-26 23:58 63.96708 -21.14667 14527 ft 372 kts 269°
2026-04-26 23:58 63.96838 -21.20421 14034 ft 368 kts 269°
2026-04-26 23:59 63.96964 -21.26105 13545 ft 363 kts 269°
2026-04-26 23:59 63.97082 -21.31627 13061 ft 359 kts 269°
2026-04-26 23:59 63.97201 -21.37286 12556 ft 356 kts 269°
2026-04-26 23:59 63.97317 -21.42788 12060 ft 353 kts 269°
2026-04-27 00:00 63.97622 -21.48132 11570 ft 354 kts 279°
2026-04-27 00:00 63.98350 -21.53301 11083 ft 355 kts 288°
2026-04-27 00:00 63.99340 -21.58282 10587 ft 355 kts 292°
2026-04-27 00:00 64.00419 -21.63185 10085 ft 352 kts 293°
2026-04-27 00:01 64.01484 -21.68014 9595 ft 350 kts 292°
2026-04-27 00:01 64.02474 -21.72628 9208 ft 345 kts 291°
2026-04-27 00:01 64.03451 -21.77315 8842 ft 339 kts 290°
2026-04-27 00:01 64.04438 -21.82152 8458 ft 334 kts 290°
2026-04-27 00:02 64.05348 -21.86681 8094 ft 329 kts 289°
2026-04-27 00:02 64.06281 -21.91366 7697 ft 318 kts 290°
2026-04-27 00:02 64.07166 -21.95816 7330 ft 307 kts 289°
2026-04-27 00:02 64.08034 -22.00198 6974 ft 297 kts 289°
2026-04-27 00:03 64.08877 -22.04447 6613 ft 288 kts 289°
2026-04-27 00:03 64.09685 -22.08526 6262 ft 280 kts 289°
2026-04-27 00:03 64.10465 -22.12465 5951 ft 269 kts 289°
2026-04-27 00:03 64.11225 -22.16280 5604 ft 256 kts 289°
2026-04-27 00:04 64.11943 -22.19873 5247 ft 247 kts 288°
2026-04-27 00:04 64.12625 -22.23403 4918 ft 233 kts 288°
2026-04-27 00:04 64.13254 -22.26637 4652 ft 216 kts 287°
2026-04-27 00:04 64.13872 -22.29804 4408 ft 219 kts 288°
2026-04-27 00:05 64.14477 -22.32928 4165 ft 217 kts 288°
2026-04-27 00:05 64.15090 -22.36070 3934 ft 213 kts 287°
2026-04-27 00:05 64.15688 -22.39129 3617 ft 213 kts 288°
2026-04-27 00:05 64.16216 -22.42283 3238 ft 209 kts 277°
2026-04-27 00:06 64.16370 -22.45439 2995 ft 194 kts 259°
2026-04-27 00:06 64.16148 -22.48294 2891 ft 172 kts 243°
2026-04-27 00:06 64.15688 -22.50727 2700 ft 162 kts 233°
2026-04-27 00:06 64.15166 -22.52956 2565 ft 159 kts 232°
2026-04-27 00:07 64.14600 -22.55124 2441 ft 158 kts 228°
2026-04-27 00:07 64.13959 -22.57109 2359 ft 153 kts 220°
2026-04-27 00:07 64.13197 -22.58734 2267 ft 148 kts 211°
2026-04-27 00:07 64.12322 -22.59893 2141 ft 144 kts 194°
2026-04-27 00:08 64.11343 -22.60285 2118 ft 141 kts 180°
2026-04-27 00:08 64.10374 -22.60362 2100 ft 141 kts 180°
2026-04-27 00:08 64.09393 -22.60439 2134 ft 138 kts 179°
2026-04-27 00:08 64.08443 -22.60486 2107 ft 138 kts 179°
2026-04-27 00:09 64.07471 -22.60502 1860 ft 139 kts 179°
2026-04-27 00:09 64.06513 -22.60534 1618 ft 140 kts 180°
2026-04-27 00:09 64.05529 -22.60561 1448 ft 139 kts 178°
2026-04-27 00:09 64.04558 -22.60553 1244 ft 140 kts 178°
2026-04-27 00:10 64.03605 -22.60545 1077 ft 138 kts 177°
2026-04-27 00:10 64.02640 -22.60533 874 ft 139 kts 178°
2026-04-27 00:10 64.01672 -22.60541 680 ft 140 kts 178°
2026-04-27 00:10 64.00700 -22.60549 491 ft 141 kts 178°
2026-04-27 00:11 63.99718 -22.60552 295 ft 141 kts 178°
2026-04-27 00:11 63.98770 -22.60547 153 ft 117 kts 177°
2026-04-27 00:11 63.98261 -22.60545 160 ft 48 kts 181°
2026-04-27 00:11 63.97946 -22.60551 160 ft 42 kts 180°
2026-04-27 00:12 63.97676 -22.60551 158 ft 29 kts 180°
2026-04-27 00:12 63.97542 -22.60554 153 ft 12 kts 181°
2026-04-27 00:12 63.97469 -22.60587 152 ft 10 kts 213°
2026-04-27 00:12 63.97440 -22.60740 149 ft 12 kts 275°
2026-04-27 00:13 63.97467 -22.60917 147 ft 11 kts 321°
2026-04-27 00:13 63.97541 -22.60947 148 ft 9 kts
2026-04-27 00:13 63.97622 -22.60947 149 ft 14 kts
2026-04-27 00:13 63.97751 -22.60943 150 ft 22 kts
2026-04-27 00:14 63.97940 -22.60944 152 ft 30 kts
2026-04-27 00:14 63.98168 -22.60945 154 ft 32 kts
2026-04-27 00:14 63.98400 -22.60943 151 ft 32 kts
2026-04-27 00:14 63.98628 -22.60943 150 ft 32 kts
2026-04-27 00:15 63.98856 -22.60946 149 ft 31 kts
2026-04-27 00:15 63.99072 -22.60945 146 ft 23 kts
2026-04-27 00:15 63.99163 -22.60969 146 ft 9 kts 321°
2026-04-27 00:15 63.99174 -22.61106 146 ft 8 kts 270°
2026-04-27 00:16 63.99174 -22.61241 144 ft 9 kts 270°
2026-04-27 00:16 63.99173 -22.61424 143 ft 12 kts 269°
2026-04-27 00:16 63.99173 -22.61643 142 ft 14 kts 270°
2026-04-27 00:16 63.99173 -22.61882 142 ft 12 kts 270°
2026-04-27 00:17 63.99209 -22.61990 142 ft 10 kts 352°
2026-04-27 00:17 63.99279 -22.61997 142 ft 9 kts
2026-04-27 00:17 63.99326 -22.62056 142 ft 8 kts 280°
2026-04-27 00:17 63.99327 -22.62163 142 ft 3 kts 271°
2026-04-27 00:18 63.99327 -22.62166 142 ft 0 kts 271°